This is the latest recevied weather packets stored in our database for station/object KD9CCP. If no packets are shown the sender has not sent any weather packets the latest 10 day(s).
| Time | Temp. | Humidity | Pressure | Rain* | Wind** | Luminosity | Snow |
|---|---|---|---|---|---|---|---|
| 1778072902 | 1.67° C | 73% | 1014.4 hPa | 0 mm | - | 26 W/m² | - |
| 1778072599 | 1.67° C | 73% | 1014.4 hPa | 0 mm | - | 21 W/m² | - |
| 1778072297 | 1.11° C | 72% | 1014.1 hPa | 0 mm | - | 21 W/m² | - |
| 1778071995 | 1.11° C | 71% | 1014.3 hPa | 0 mm | - | 19 W/m² | - |
| 1778071693 | 1.67° C | 77% | 1014.3 hPa | 0 mm | - | 17 W/m² | - |
| 1778071389 | 1.67° C | 75% | 1014.2 hPa | 0 mm | - | 16 W/m² | - |
| 1778071087 | 1.67° C | 77% | 1014.3 hPa | 0 mm | - | 16 W/m² | - |
| 1778070786 | 1.11° C | 74% | 1014.1 hPa | 0 mm | - | 15 W/m² | - |
| 1778070482 | 1.11° C | 76% | 1013.9 hPa | 0 mm | - | 15 W/m² | - |
| 1778070179 | 1.11° C | 72% | 1013.9 hPa | 0 mm | - | 12 W/m² | - |
| 1778069877 | 1.11° C | 75% | 1013.8 hPa | 0 mm | - | 12 W/m² | - |
| 1778069574 | 1.11° C | 73% | 1013.6 hPa | 0 mm | - | 11 W/m² | - |
| 1778069271 | 1.11° C | 75% | 1013.7 hPa | 0 mm | - | 9 W/m² | - |
| 1778068969 | 0.56° C | 74% | 1013.5 hPa | 0 mm | - | 8 W/m² | - |
| 1778068666 | 0.56° C | 75% | 1013.4 hPa | 0 mm | - | 8 W/m² | - |
| 1778068364 | 0.56° C | 74% | 1013.5 hPa | 0 mm | - | 7 W/m² | - |
| 1778068062 | 0.56° C | 73% | 1013.4 hPa | 0 mm | - | 6 W/m² | - |
| 1778067759 | 0.56° C | 73% | 1013.6 hPa | 0 mm | - | 5 W/m² | - |
| 1778067458 | 0.56° C | 72% | 1013.5 hPa | 0 mm | - | 4 W/m² | - |
| 1778067155 | 0.56° C | 74% | 1013.5 hPa | 0 mm | - | 4 W/m² | - |
| 1778066851 | 0.56° C | 74% | 1013.4 hPa | 0 mm | - | 3 W/m² | - |
| 1778066549 | 0.56° C | 77% | 1013.5 hPa | 0 mm | - | 2 W/m² | - |
| 1778066246 | 0.56° C | 74% | 1013.5 hPa | 0 mm | - | 1 W/m² | - |
| 1778065944 | 0.56° C | 74% | 1013.5 hPa | 0 mm | - | 1 W/m² | - |
| 1778065640 | 0.56° C | 74% | 1013.6 hPa | 0 mm | - | 1 W/m² | - |
* Rain latest hour (hover to see other rain measurements)
** Current wind speed in m/s (hover to see current wind gust speed)